Bidar Air Force Station

Jump to: basic info | weather | frequencies | runways | comments

Related pages: nearby airports | nearby navaids | notams | map

Basic information (top)

Codes: VOBR
Location: lon 17.908100, lat 77.487099, elev 2,178 ft / 664 m msl
Status: medium_airport

Weather (top)

Current conditions for Begumpet Airport 62nm (116km) ESE (rec'd 2014/12/22 05:40Z):

VOHY 220540Z 19005KT 5000 HZ NSC 25/08 Q1018 BECMG 6000

Airport forecast for Begumpet Airport 62nm (116km) ESE (rec'd 2014/11/01 12:39Z):

TAF VOHY 010900Z 0112/0218 06006KT 5000 HZ SCT015 BKN100

Frequencies (top)

Verify before use: may be inaccurate or out of date.

APP: 122.85 MHz ()
Twr: 123.5 MHz ()

Runways (top)

02/20: 6,955 x 148 ft (2,120 x 45 m) — paved — lighted

08/26: 6,798 x 150 ft (2,072 x 46 m) — paved — lighted

Latest comments (top)

939814-l: stendra [read]

More... (top)

See also NOTAMs and nearby airports and navaids, or visit the Bidar Air Force Station page at the main OurAirports website..